Terug naar catalogus

CZ-6A DEB

ActiefPO
NORAD 55207·DEBRIS·🇨🇳 China

Gelanceerd Nov 11, 2022 vanaf Taiyuan Satellite Launch Center

Loading…

Volgende Passages (komende 24 uur)

TLE

VersSource: Space-Track

Epoch: Sep 13, 2026, 16:28 UTC

1 55207U 22151VY  26256.68622197  .00011726  00000-0  13361-2 0  9995
2 55207  98.6332 340.5470 0055585 331.9189  27.9027 14.85213167198842

Volg CZ-6A DEB in realtime met AllMySat

Download on the App Store